Simultaneous Nadir Overpasses (SNOs) Predictions

Prediction of SNOs between GOES-16 and AQUA Satellite Orbit:

Table of predicted SNOs for the next 14.0 days since TLE Epoch: 4/25/2025
Index Date Time (GOES-16) GOES-16 Lat,Lon AQUA Lat,Lon Distance(km) Time Diff (sec)
1 04/26/2025 20:07:32 0.02, -83.50 0.18, -82.76 83.90 80
2 04/27/2025 08:29:26 -0.01, -83.76 0.77, -87.42 416.60 80
3 04/29/2025 08:06:45 -0.02, -84.77 -0.51, -82.55 253.10 80
4 04/29/2025 20:28:47 0.02, -85.05 -0.47, -87.24 249.21 80
5 05/01/2025 20:06:05 0.02, -86.07 0.83, -82.37 421.49 80
6 05/02/2025 08:27:58 -0.01, -86.32 0.13, -87.01 78.52 80
7 05/04/2025 20:24:36 0.01, -87.63 0.18, -86.82 91.77 80
8 05/05/2025 08:46:28 -0.00, -87.89 0.76, -91.47 407.57 80
9 05/07/2025 08:23:44 -0.01, -88.92 -0.53, -86.59 266.39 80
10 05/07/2025 20:45:44 0.00, -89.20 -0.44, -91.27 235.03 80
